| time (UTC) | temp F | wind direction | speed MPH | gust MPH | rain 1hr in | rain 24hr in | rain mn in | humidity % | barometer mb |
| 20260503215858 | 76 | 36 | 4.0 | 128.0 | 0.00 | 0.00 | 0.00 | 40 | 884.9 |
| 20260503214850 | 76 | 50 | 4.0 | 28.0 | 0.00 | 0.00 | 0.00 | 39 | 884.9 |
| 20260503213914 | 77 | 342 | 5.0 | 57.0 | 0.00 | 0.00 | 0.00 | 37 | 884.9 |
| 20260503212921 | 76 | 300 | 9.0 | 50.0 | 0.00 | 0.00 | 0.00 | 40 | 884.9 |
| 20260503211913 | 76 | 92 | 7.0 | 54.0 | 0.00 | 0.00 | 0.00 | 41 | 884.9 |
| 20260503210908 | 75 | 44 | 4.0 | 34.0 | 0.00 | 0.00 | 0.00 | 42 | 884.9 |
| 20260503204825 | 75 | 355 | 7.0 | 45.0 | 0.00 | 0.00 | 0.00 | 40 | 1012.8 |
| 20260503203810 | 75 | 300 | 3.0 | 13.0 | 0.00 | 0.00 | 0.00 | 42 | 1012.8 |
| 20260503202814 | 74 | 58 | 6.0 | 28.0 | 0.00 | 0.00 | 0.00 | 47 | 1012.8 |
| 20260503201815 | 74 | 267 | 2.0 | 20.0 | 0.00 | 0.00 | 0.00 | 48 | 1012.8 |
| 20260503200810 | 73 | 304 | 7.0 | 32.0 | 0.00 | 0.00 | 0.00 | 48 | 1012.8 |
| 20260503195750 | 72 | 48 | 7.0 | 50.0 | 0.00 | 0.00 | 0.00 | 50 | 1012.8 |
| 20260503194757 | 72 | 290 | 11.0 | 41.0 | 0.00 | 0.00 | 0.00 | 48 | 1012.8 |
| 20260503193730 | 72 | 41 | 7.0 | 44.0 | 0.00 | 0.00 | 0.00 | 50 | 1012.8 |
| 20260503192707 | 71 | 0 | 0.0 | 28.0 | 0.00 | 0.00 | 0.00 | 53 | 1012.8 |
| 20260503191653 | 71 | 294 | 0.0 | 9.0 | 0.00 | 0.00 | 0.00 | 54 | 1012.8 |
| 20260503190653 | 70 | 333 | 0.0 | 0.0 | 0.00 | 0.00 | 0.00 | 57 | 1012.8 |
| 20260503185620 | 71 | 278 | 3.0 | 110.0 | 0.00 | 0.00 | 0.00 | 52 | 1012.8 |
| 20260503184551 | 70 | 246 | 1.0 | 15.0 | 0.00 | 0.00 | 0.00 | 54 | 1012.8 |
| 20260503183601 | 70 | 225 | 4.0 | 24.0 | 0.00 | 0.00 | 0.00 | 56 | 1012.8 |
| 20260503181419 | 69 | 329 | 2.0 | 31.0 | 0.00 | 0.00 | 0.00 | 56 | 1012.8 |
| 20260503180430 | 68 | 313 | 0.0 | 1.0 | 0.00 | 0.00 | 0.00 | 60 | 1012.8 |
| 20260503174303 | 66 | 290 | 0.0 | 18.0 | 0.00 | 0.00 | 0.00 | 64 | 1012.8 |
| 20260503172058 | 65 | 325 | 0.0 | 26.0 | 0.00 | 0.00 | 0.00 | 64 | 1012.8 |
| 20260503171028 | 64 | 330 | 0.0 | 3.0 | 0.00 | 0.00 | 0.00 | 67 | 1012.8 |
| 20260503150518 | 59 | 28 | 1.0 | 0.0 | 0.00 | 0.00 | 0.00 | 77 | 1013.0 |
| 20260503131230 | 51 | 47 | 0.0 | 0.0 | 0.00 | 0.00 | 0.00 | 87 | 1012.6 |
| 20260503130158 | 50 | 47 | 0.0 | 0.0 | 0.00 | 0.00 | 0.00 | 87 | 1012.6 |
| 20260503120145 | 50 | 47 | 0.0 | 0.0 | 0.00 | 0.00 | 0.00 | 87 | 1012.7 |
| 20260503110109 | 50 | 47 | 0.0 | 0.0 | 0.00 | 0.00 | 0.00 | 86 | 1012.8 |
| 20260503080707 | 53 | 47 | 0.0 | 0.0 | 0.00 | 0.00 | 0.00 | 81 | 1013.0 |
| 20260503072622 | 53 | 47 | 0.0 | 0.0 | 0.00 | 0.00 | 0.00 | 80 | 1012.7 |
| 20260503070410 | 53 | 47 | 0.0 | 0.0 | 0.00 | 0.00 | 0.00 | 80 | 1012.6 |
| 20260503060138 | 55 | 47 | 0.0 | 0.0 | 0.00 | 0.00 | 0.00 | 77 | 1012.6 |
| 20260503054123 | 56 | 47 | 0.0 | 0.0 | 0.00 | 0.00 | 0.00 | 77 | 1012.5 |
| 20260503053135 | 56 | 47 | 0.0 | 0.0 | 0.00 | 0.00 | 0.00 | 76 | 1012.0 |
| 20260503052126 | 56 | 47 | 0.0 | 0.0 | 0.00 | 0.00 | 0.00 | 76 | 1012.4 |
| 20260503051107 | 55 | 47 | 0.0 | 0.0 | 0.00 | 0.00 | 0.00 | 79 | 1012.5 |
| 20260503050129 | 56 | 47 | 0.0 | 0.0 | 0.00 | 0.00 | 0.00 | 78 | 1012.5 |
| 20260503042825 | 59 | 47 | 0.0 | 0.0 | 0.00 | 0.00 | 0.00 | 69 | 1004.3 |
| 20260503040705 | 59 | 47 | 0.0 | 0.0 | 0.00 | 0.00 | 0.00 | 70 | 1011.4 |
| 20260503035720 | 60 | 47 | 0.0 | 0.0 | 0.00 | 0.00 | 0.00 | 68 | 1010.0 |
| 20260503032446 | 63 | 47 | 0.0 | 0.0 | 0.00 | 0.00 | 0.00 | 62 | 990.4 |
| 20260503031428 | 64 | 47 | 0.0 | 0.0 | 0.00 | 0.00 | 0.00 | 60 | 955.5 |
| 20260503030415 | 64 | 47 | 0.0 | 10.0 | 0.00 | 0.00 | 0.00 | 58 | 955.5 |
| 20260503025422 | 65 | 47 | 1.0 | 0.0 | 0.00 | 0.00 | 0.00 | 56 | 955.5 |
| 20260503023242 | 67 | 47 | 0.0 | 12.0 | 0.00 | 0.00 | 0.00 | 55 | 908.8 |
| 20260503022230 | 67 | 47 | 0.0 | 3.0 | 0.00 | 0.00 | 0.00 | 54 | 908.8 |
| 20260503021241 | 68 | 47 | 0.0 | 2.0 | 0.00 | 0.00 | 0.00 | 56 | 908.8 |
| 20260503020222 | 68 | 47 | 0.0 | 0.0 | 0.00 | 0.00 | 0.00 | 54 | 908.8 |
| 20260503012835 | 71 | 14 | 2.0 | 9.0 | 0.00 | 0.00 | 0.00 | 49 | 908.8 |
| 20260503011849 | 71 | 321 | 1.0 | 25.0 | 0.00 | 0.00 | 0.00 | 47 | 908.8 |
| 20260503005737 | 72 | 346 | 3.0 | 24.0 | 0.00 | 0.00 | 0.00 | 48 | 908.8 |
| 20260503004728 | 72 | 349 | 2.0 | 73.0 | 0.00 | 0.00 | 0.00 | 46 | 908.8 |
| 20260503003746 | 72 | 32 | 0.0 | 9.0 | 0.00 | 0.00 | 0.00 | 46 | 908.8 |
| 20260503002726 | 72 | 33 | 1.0 | 25.0 | 0.00 | 0.00 | 0.00 | 49 | 908.8 |
| 20260503001653 | 72 | 42 | 2.0 | 132.0 | 0.00 | 0.00 | 0.00 | 48 | 908.8 |
| 20260502232601 | 73 | 309 | 6.0 | 55.0 | 0.00 | 0.00 | 0.00 | 50 | 913.2 |
| 20260502230500 | 71 | 302 | 12.0 | 75.0 | 0.00 | 0.00 | 0.00 | 51 | 913.2 |
| 20260502225449 | 70 | 60 | 14.0 | 75.0 | 0.00 | 0.00 | 0.00 | 55 | 913.2 |
| 20260502224433 | 71 | 55 | 8.0 | 13.0 | 0.00 | 0.00 | 0.00 | 55 | 913.2 |
| 20260502223445 | 70 | 337 | 4.0 | 49.0 | 0.00 | 0.00 | 0.00 | 54 | 913.2 |
| 20260502222418 | 71 | 19 | 7.0 | 68.0 | 0.00 | 0.00 | 0.00 | 54 | 913.2 |
| 20260502221432 | 71 | 338 | 11.0 | 68.0 | 0.00 | 0.00 | 0.00 | 56 | 913.2 |
| 20260502220412 | 70 | 39 | 9.0 | 38.0 | 0.00 | 0.00 | 0.00 | 55 | 913.2 |